FW0042 Weather Reports


time (UTC)temp
F
wind
direction
speed
knots
gust
knots
rain 1hr
in
rain 24hr
in
rain mn
in
humidity
%
barometer
mb
20260508030020 0 0.0 0.0 0.00 0.00 0.00 1017.7
20260508024515 0 0.0 0.0 0.00 0.00 0.00 1017.7
20260508023023 0 0.0 0.0 0.00 0.00 0.00 1017.7
20260508021511 0 0.0 0.0 0.00 0.00 0.00 1017.4
20260508020002 0 0.0 0.0 0.00 0.00 0.00 1017.4
20260508014600 38 182 0.0 0.9 0.00 0.00 0.00 83 1017.4
20260508013158 38 182 0.0 0.0 0.00 0.00 0.00 81 1017.3
20260508011658 38 182 0.0 0.9 0.00 0.00 0.00 82 1017.3
20260508010054 39 182 0.0 0.0 0.00 0.00 0.00 81 1017.4
20260508004553 39 182 0.0 0.0 0.00 0.00 0.00 81 1017.4
20260508003100 39 182 0.0 0.0 0.00 0.00 0.00 81 1017.5
20260508001556 39 182 0.0 0.0 0.00 0.00 0.00 80 1017.6
20260508000049 39 182 0.0 0.0 0.00 0.00 0.00 80 1017.5
20260507234548 39 182 0.0 0.0 0.00 0.00 0.00 79 1017.5
20260507233046 40 182 0.0 0.0 0.00 0.00 0.00 78 1017.6
20260507231544 40 182 0.0 0.0 0.00 0.00 0.00 78 1017.6
20260507230043 40 182 0.0 0.0 0.00 0.00 0.00 78 1017.5
20260507224558 40 182 0.0 0.0 0.00 0.00 0.00 77 1017.5
20260507223043 41 182 0.0 0.0 0.00 0.00 0.00 75 1017.4
20260507221535 41 182 0.0 0.0 0.00 0.00 0.00 74 1017.3
20260507220031 42 182 0.0 0.0 0.00 0.00 0.00 73 1017.1
20260507214531 42 182 0.0 0.0 0.00 0.00 0.00 72 1017.1
20260507213030 42 182 0.0 0.0 0.00 0.00 0.00 71 1017.0
20260507211530 43 182 0.0 0.0 0.00 0.00 0.00 69 1016.9
20260507210032 44 182 0.0 0.0 0.00 0.00 0.00 68 1016.8
20260507204530 44 182 0.0 0.9 0.00 0.00 0.00 66 1016.7
20260507203028 45 183 0.0 0.0 0.00 0.00 0.00 64 1016.6
20260507201528 46 184 0.0 0.0 0.00 0.00 0.00 61 1016.5
20260507200027 47 184 0.0 0.0 0.00 0.00 0.00 60 1016.3
20260507194525 47 184 0.0 0.0 0.00 0.00 0.00 58 1016.2
20260507193028 48 184 0.0 0.0 0.00 0.00 0.00 59 1016.1
20260507191524 48 184 0.0 0.0 0.00 0.00 0.00 58 1016.0
20260507190027 49 184 0.0 0.0 0.00 0.00 0.00 57 1016.0
20260507184523 49 243 0.0 0.0 0.00 0.00 0.00 59 1015.9
20260507183023 49 238 0.0 0.0 0.00 0.00 0.00 58 1015.8
20260507181521 49 238 0.0 0.0 0.00 0.00 0.00 59 1015.7
20260507180020 49 246 0.0 0.0 0.00 0.00 0.00 58 1015.7
20260507174520 50 199 0.0 0.0 0.00 0.00 0.00 56 1015.8
20260507173019 50 148 0.0 0.0 0.00 0.00 0.00 57 1015.8
20260507171518 50 168 0.0 0.0 0.00 0.00 0.00 57 1015.8
20260507170017 50 134 0.0 1.7 0.00 0.00 0.00 54 1016.0
20260507164516 50 192 0.0 0.0 0.00 0.00 0.00 57 1016.0
20260507163020 51 186 0.0 0.0 0.00 0.00 0.00 52 1016.0
20260507161515 51 290 0.0 0.0 0.00 0.00 0.00 54 1016.2
20260507160016 51 175 0.0 0.0 0.00 0.00 0.00 56 1016.3
20260507154512 51 189 0.0 0.9 0.00 0.00 0.00 54 1016.5
20260507153011 50 194 0.0 0.9 0.00 0.00 0.00 54 1016.5
20260507151510 50 143 0.0 0.9 0.00 0.00 0.00 57 1016.5
20260507150012 50 132 0.0 0.0 0.00 0.00 0.00 54 1016.5
20260507144507 51 129 0.0 0.9 0.00 0.00 0.00 53 1016.6
20260507143006 51 129 0.0 0.9 0.00 0.00 0.00 49 1016.7
20260507141504 51 119 0.0 1.7 0.00 0.00 0.00 48 1016.7
20260507140004 51 118 0.0 0.9 0.00 0.00 0.00 50 1016.7
20260507134502 51 103 0.0 0.9 0.00 0.00 0.00 49 1016.7
20260507133105 50 96 0.0 0.9 0.00 0.00 0.00 52 1016.8
20260507131603 50 86 0.0 0.0 0.00 0.00 0.00 49 1016.9
20260507130058 50 103 0.0 1.7 0.00 0.00 0.00 50 1017.0
20260507124559 51 135 0.0 1.7 0.00 0.00 0.00 50 1017.1
20260507123057 51 128 0.0 1.7 0.00 0.00 0.00 52 1017.0
20260507121553 51 72 0.0 0.9 0.00 0.00 0.00 51 1017.2
20260507120052 51 126 0.0 2.6 0.00 0.00 0.00 52 1017.3
20260507114549 50 121 0.0 1.7 0.00 0.00 0.00 51 1017.3
20260507113048 50 140 0.0 1.7 0.00 0.00 0.00 54 1017.2
20260507111547 49 144 0.0 1.7 0.00 0.00 0.00 54 1017.3
20260507110050 49 156 0.0 5.2 0.00 0.00 0.00 54 1017.3
20260507104543 50 121 0.0 0.9 0.00 0.00 0.00 53 1017.2
20260507103042 51 5 0.0 0.0 0.00 0.00 0.00 59 1017.2
20260507101557 53 5 0.0 0.0 0.00 0.00 0.00 58 1017.2
20260507100040 53 5 0.0 0.0 0.00 0.00 0.00 57 1017.2
20260507094543 54 5 0.0 0.0 0.00 0.00 0.00 60 1017.2
20260507093037 55 15 0.0 0.0 0.00 0.00 0.00 56 1017.3
20260507091551 56 17 0.0 0.0 0.00 0.00 0.00 60 1017.3
20260507090035 55 24 0.0 0.0 0.00 0.00 0.00 66 1017.4
20260507084531 56 350 0.0 0.9 0.00 0.00 0.00 58 1017.4
20260507083030 55 355 0.0 0.0 0.00 0.00 0.00 58 1017.4
20260507081534 54 19 0.0 0.0 0.00 0.00 0.00 64 1017.2
20260507080021 53 340 0.0 0.0 0.00 0.00 0.00 64 1017.2
20260507074517 51 333 0.0 0.0 0.00 0.00 0.00 70 1017.2
20260507073012 49 346 0.0 0.0 0.00 0.00 0.00 75 1017.1
20260507071509 47 355 0.0 0.0 0.00 0.00 0.00 85 1017.2
20260507070007 45 11 0.0 0.0 0.00 0.00 0.00 89 1017.2
20260507064600 43 11 0.0 0.0 0.00 0.00 0.00 94 1017.2
20260507063100 41 15 0.0 0.0 0.00 0.00 0.00 95 1017.2
20260507061551 40 15 0.0 0.0 0.00 0.00 0.00 96 1017.1
20260507060046 0 0.0 0.0 0.00 0.00 0.00 1017.1
20260507054546 0 0.0 0.0 0.00 0.00 0.00 1017.1
20260507053042 0 0.0 0.0 0.00 0.00 0.00 1017.0
20260507051533 0 0.0 0.0 0.00 0.00 0.00 1016.9
20260507050033 0 0.0 0.0 0.00 0.00 0.00 1016.8
20260507044539 0 0.0 0.0 0.00 0.00 0.00 1016.7
20260507043019 0 0.0 0.0 0.00 0.00 0.00 1016.7
20260507041516 0 0.0 0.0 0.00 0.00 0.00 1016.6
20260507040011 0 0.0 0.0 0.00 0.00 0.00 1016.6
20260507034507 0 0.0 0.0 0.00 0.00 0.00 1016.6
20260507033007 0 0.0 0.0 0.00 0.00 0.00 1016.5
20260507031558 0 0.0 0.0 0.00 0.00 0.00 1016.5